[[{"header":{"parameterUnit":"m.s-1","parameterCategory":1,"la1":30.2991,"la2":30.254,"lo1":-89.0895,"lo2":-89.0444,"dy":0.0017,"dx":0.0017,"nx":28,"ny":28,"refTime":"2024-04-24T21:00:00:Z","depth":0,"parameterNumber":2,"parameterNumberName":"U-component_of_WINDS"},"data":[0,0,0,0,0,0,0,0,0,0,0,0,0,0,0,0,0,0,0,0,0,0,0,0,0,0,0,0,0,0,0,0,0,0,0,0,0,0,0,0,0,0,0,0,0,0,0,0,0,0,0,0,0,0,0,0,0,0,-1.952,-1.952,0,-1.956,-1.956,-1.9561,-1.9545,-1.9544,-1.9543,-1.9542,-1.9584,-1.9586,-1.9588,0,0,0,0,0,0,0,0,0,0,0,0,0,-1.9431,-1.9433,-1.952,-1.952,-1.9521,-1.956,-1.956,-1.9561,-1.9545,-1.9544,-1.9543,-1.9542,-1.9583,-1.9585,-1.9588,0,0,0,0,0,0,0,0,0,0,0,0,0,-1.947,-1.9433,-1.952,-1.9518,-1.9518,-1.956,-1.956,-1.9561,-1.9545,-1.9544,-1.9542,-1.9541,-1.9582,-1.9585,-1.9588,-1.9635,0,0,-1.9597,-1.9599,0,0,0,0,0,0,0,0,-1.9468,-1.9474,-1.9517,-1.9518,-1.9518,-1.9546,-1.9544,-1.9586,-1.9546,-1.9535,-1.9542,-1.954,-1.9572,-1.9576,-1.9587,-1.9637,-1.9639,-1.9597,-1.9599,-1.9601,-1.9601,0,0,0,0,0,0,0,-1.9465,-1.9472,-1.9536,-1.9518,-1.9519,-1.9515,-1.9519,-1.9552,-1.9561,-1.9536,-1.9535,-1.9539,-1.9572,-1.9584,-1.9588,-1.9639,-1.9597,-1.96,-1.9602,-1.9603,-1.973,-1.9731,0,0,0,0,0,0,-1.9462,-1.947,-1.9534,-1.9537,-1.9489,-1.9518,-1.9522,-1.9538,-1.9561,-1.9563,-1.9541,-1.9539,-1.9579,-1.9584,-1.9589,-1.9645,-1.9601,-1.9603,-1.9605,-1.9728,-1.973,-1.9732,0,0,0,0,0,0,-1.9461,-1.9468,-1.9533,-1.9503,-1.9511,-1.9521,-1.9539,-1.954,-1.9551,-1.9564,-1.9566,-1.9551,-1.9578,-1.9585,-1.9623,-1.9646,-1.9605,-1.9607,-1.9726,-1.9729,-1.9731,-1.9758,0,0,0,0,0,0,-1.9458,-1.9468,-1.9485,-1.9503,-1.9513,-1.9567,-1.9541,-1.9542,-1.9557,-1.9554,-1.9574,-1.9576,-1.9578,-1.9619,-1.9626,-1.965,-1.961,-1.9724,-1.9727,-1.973,-1.9755,-1.976,-1.9766,0,0,0,0,0,-1.9455,-1.9491,-1.9486,-1.9494,-1.9535,-1.9568,-1.9573,-1.9574,-1.9558,-1.9576,-1.9585,-1.9576,-1.9643,-1.9623,-1.9631,-1.9656,-1.9723,-1.9727,-1.973,-1.9752,-1.9759,-1.9765,0,0,0,0,0,0,-1.9476,-1.9494,-1.9488,-1.9532,-1.9548,-1.9565,-1.9588,-1.9581,-1.9603,-1.96,-1.9601,-1.9605,-1.9645,-1.9654,-1.9632,-1.9702,-1.968,-1.9686,-1.9695,-1.9701,-1.9707,-1.9704,-1.9612,0,0,0,0,0,-1.9485,-1.9511,-1.9525,-1.9562,-1.957,-1.9578,-1.9592,-1.9591,-1.9609,-1.9616,-1.9627,-1.9645,-1.967,-1.9686,-1.971,-1.9756,-1.976,-1.9777,-1.9782,-1.9787,-1.9791,-1.9816,-1.9824,-1.9743,-1.9743,-1.9743,0,0,-1.9506,-1.9518,-1.9534,-1.9566,-1.9579,-1.9606,-1.9584,-1.9612,-1.9632,-1.962,-1.9658,-1.9667,-1.9686,-1.9729,-1.9748,-1.9738,-1.9814,-1.9791,-1.9795,-1.9797,-1.9821,-1.9828,-1.9835,-1.9746,-1.9745,-1.9745,0,0,-1.9556,-1.9568,-1.96,-1.9613,-1.9633,-1.9638,-1.9645,-1.9663,-1.9669,-1.9706,-1.9698,-1.9721,-1.9764,-1.9779,-1.9792,-1.9848,-1.984,-1.9856,-1.9884,-1.9908,-1.9915,-1.992,-1.994,-1.9948,-1.986,-1.986,-1.986,0,-1.9578,-1.9617,-1.9617,-1.9647,-1.9661,-1.9652,-1.9684,-1.9697,-1.9724,-1.9734,-1.9722,-1.9776,-1.9789,-1.9835,-1.9848,-1.9859,-1.9868,-1.9853,-1.9914,-1.9919,-1.9925,-1.9944,-1.9951,-1.9862,-1.9862,-1.9862,-1.9861,0,-1.9644,-1.9671,-1.9695,-1.9721,-1.9738,-1.9769,-1.9774,-1.9791,-1.9789,-1.9795,-1.9834,-1.9848,-1.9875,-1.9886,-1.9884,-1.9932,-1.9925,-1.9913,-1.9891,-1.9934,-1.9952,-1.9959,-1.9864,-1.9864,-1.9863,-1.9863,0,0,-1.9708,-1.9734,-1.9742,-1.9754,-1.9775,-1.9796,-1.9827,-1.9853,-1.9868,-1.9887,-1.9913,-1.9949,-1.9939,-1.9954,-1.9954,-1.9975,-2.0019,-1.9961,-1.9962,-1.9971,-2.0072,-2.008,-2.0089,-2.0014,-2.0015,-2.0017,-2.007,0,-1.976,-1.9813,-1.9814,-1.9863,-1.9889,-1.988,-1.9907,-1.9923,-1.993,-1.9953,-1.996,-1.9986,-1.997,-1.9979,-2.0,-2.0009,-2.0039,-2.0005,-2.0038,-2.0039,-2.0033,-2.0098,-2.0107,-2.0157,-2.0077,-2.0079,-2.008,0,-1.9827,-1.9848,-1.9899,-1.9917,-1.9928,-1.9952,-1.9976,-1.9997,-2.0016,-2.0019,-2.0036,-2.0032,-2.0064,-2.0042,-2.0085,-2.0062,-2.0076,-2.0083,-2.0085,-2.0087,-2.0062,-2.0103,-2.0173,-2.0181,-2.0091,-2.009,-2.0089,0,-1.9869,-1.991,-1.9946,-1.9956,-1.9977,-1.9994,-2.0004,-2.0021,-2.0037,-2.0058,-2.0068,-2.0092,-2.0106,-2.0125,-2.0129,-2.0112,-2.0173,-2.0151,-2.0177,-2.0177,-2.019,-2.0189,-2.0263,-2.0199,-2.0199,-2.0199,-2.0198,0,-1.9926,-1.9958,-1.9964,-1.9987,-2.0022,-2.0024,-2.0059,-2.0067,-2.0083,-2.0107,-2.0101,-2.0124,-2.0127,-2.0151,-2.0154,-2.019,-2.0196,-2.02,-2.02,-2.02,-2.02,-2.0209,-2.0206,-2.0201,-2.02,-2.02,-2.0199,0,-1.9978,-1.9984,-2.0023,-2.004,-2.0045,-2.0071,-2.0085,-2.0107,-2.0113,-2.0143,-2.0151,-2.016,-2.0188,-2.0194,-2.0226,-2.0229,-2.0271,-2.0268,-2.0265,-2.0265,-2.029,-2.0288,-2.0373,-2.0384,-2.0313,-2.0314,-2.0314,0,-2.0015,-2.0039,-2.0059,-2.0074,-2.0085,-2.011,-2.0126,-2.0128,-2.0145,-2.0167,-2.0186,-2.0213,-2.0235,-2.0279,-2.029,-2.0315,-2.0312,-2.034,-2.0316,-2.0315,-2.0312,-2.0311,-2.0313,-2.0345,-2.0346,-2.0346,-2.0347,0,-2.0078,-2.008,-2.0103,-2.0126,-2.0145,-2.0164,-2.0182,-2.0195,-2.02,-2.0219,-2.0247,-2.0264,-2.0297,-2.0324,-2.0349,-2.036,-2.0355,-2.0355,-2.0362,-2.0362,-2.0359,-2.0361,-2.0277,-2.0352,-2.0352,-2.0352,-2.0351,-2.0351,-2.0124,-2.0145,-2.0162,-2.0188,-2.0201,-2.0218,-2.0239,-2.0248,-2.0271,-2.0298,-2.0298,-2.0329,-2.0347,-2.038,-2.0392,-2.0416,-2.0408,-2.0418,-2.0421,-2.0424,-2.0426,-2.0355,-2.0421,-2.0421,-2.0421,-2.0421,-2.0421,0,-2.0187,-2.0198,-2.0221,-2.0246,-2.0266,-2.0259,-2.0279,-2.0296,-2.0323,-2.034,-2.0362,-2.0394,-2.042,-2.0432,-2.0458,-2.0475,-2.0473,-2.0482,-2.0481,-2.0483,-2.0432,-2.0423,-2.0483,-2.0483,-2.0483,-2.0483,-2.0483,-2.0483,-2.0222,-2.0258,-2.0262,-2.0304,-2.0314,-2.0344,-2.0356,-2.0372,-2.0385,-2.0421,-2.0443,-2.0451,-2.0466,-2.0493,-2.0517,-2.052,-2.0529,-2.0539,-2.0541,-2.0493,-2.0487,-2.0481,-2.0472,-2.0541,-2.0541,-2.059,-2.059,-2.059]},{"header":{"parameterUnit":"m.s-1","parameterCategory":1,"la1":30.2991,"la2":30.254,"lo1":-89.0895,"lo2":-89.0444,"dy":0.0017,"dx":0.0017,"nx":28,"ny":28,"refTime":"2024-04-24T21:00:00:Z","depth":0,"parameterNumber":3,"parameterNumberName":"V-component_of_WINDS"},"data":[0,0,0,0,0,0,0,0,0,0,0,0,0,0,0,0,0,0,0,0,0,0,0,0,0,0,0,0,0,0,0,0,0,0,0,0,0,0,0,0,0,0,0,0,0,0,0,0,0,0,0,0,0,0,0,0,0,0,4.4623,4.4622,0,4.459,4.459,4.4589,4.449,4.4488,4.4486,4.4484,4.4452,4.4453,4.4454,0,0,0,0,0,0,0,0,0,0,0,0,0,4.46,4.4601,4.4623,4.4622,4.4622,4.459,4.459,4.4589,4.4491,4.4488,4.4485,4.4483,4.4451,4.4453,4.4454,0,0,0,0,0,0,0,0,0,0,0,0,0,4.4593,4.4601,4.4623,4.4569,4.4564,4.459,4.459,4.4589,4.4491,4.4488,4.4485,4.4482,4.4451,4.4453,4.4454,4.4531,0,0,4.446,4.4461,0,0,0,0,0,0,0,0,4.4593,4.4594,4.4577,4.4573,4.4567,4.4541,4.457,4.457,4.4492,4.4519,4.4484,4.448,4.4484,4.4483,4.4484,4.4529,4.4528,4.446,4.4461,4.4462,4.4462,0,0,0,0,0,0,0,4.4594,4.4595,4.461,4.4577,4.4571,4.4546,4.4542,4.4569,4.452,4.4516,4.4509,4.4506,4.4481,4.4483,4.4483,4.4527,4.446,4.4461,4.4463,4.4463,4.4631,4.4635,0,0,0,0,0,0,4.4602,4.4596,4.4611,4.4609,4.4572,4.4549,4.4544,4.4553,4.452,4.4512,4.4509,4.4502,4.4481,4.4481,4.4481,4.4567,4.4462,4.4463,4.4464,4.4628,4.4632,4.4636,0,0,0,0,0,0,4.4602,4.4604,4.4612,4.46,4.4599,4.4553,4.4563,4.4554,4.4555,4.4514,4.4505,4.452,4.4479,4.4479,4.4519,4.4564,4.4464,4.4466,4.4624,4.4629,4.4634,4.474,0,0,0,0,0,0,4.4602,4.4605,4.4633,4.4601,4.46,4.465,4.4566,4.4555,4.4558,4.4549,4.4522,4.4515,4.4476,4.4516,4.452,4.4565,4.4467,4.462,4.4626,4.4632,4.4732,4.4748,4.4762,0,0,0,0,0,4.4601,4.4665,4.4635,4.4638,4.4635,4.4653,4.4652,4.4606,4.4563,4.4591,4.4564,4.4515,4.4559,4.4521,4.4525,4.4571,4.4617,4.4624,4.4632,4.4726,4.4745,4.4761,0,0,0,0,0,0,4.4705,4.466,4.4627,4.4682,4.4672,4.4637,4.4671,4.4629,4.4631,4.4622,4.4565,4.456,4.4608,4.4593,4.4552,4.4642,4.458,4.4588,4.465,4.4668,4.4682,4.4684,4.4469,0,0,0,0,0,4.4734,4.4752,4.4712,4.4765,4.4762,4.4718,4.4724,4.4689,4.4676,4.4672,4.4648,4.4638,4.4649,4.4658,4.4666,4.473,4.4722,4.4763,4.4778,4.479,4.4798,4.4829,4.4846,4.4661,4.4661,4.4661,0,0,4.4795,4.4773,4.4788,4.4786,4.4774,4.4793,4.4715,4.474,4.4754,4.4676,4.4711,4.4694,4.4679,4.4731,4.4752,4.472,4.4847,4.48,4.481,4.4811,4.4839,4.4856,4.4872,4.4666,4.4665,4.4664,0,0,4.4915,4.4901,4.4942,4.4932,4.4914,4.4884,4.4894,4.4865,4.485,4.4885,4.4826,4.4842,4.4863,4.4854,4.4852,4.4968,4.4923,4.4972,4.5049,4.508,4.5095,4.5107,4.5148,4.5163,4.4981,4.4981,4.4981,0,4.4993,4.502,4.4969,4.4997,4.4998,4.4927,4.4968,4.4961,4.4948,4.4949,4.4913,4.4936,4.4922,4.497,4.4998,4.4999,4.5008,4.4975,4.5097,4.5109,4.512,4.5158,4.5173,4.4987,4.4986,4.4986,4.4985,0,4.5116,4.5136,4.5172,4.5159,4.5164,4.5199,4.5152,4.5163,4.5128,4.5101,4.5137,4.5117,4.5118,4.5127,4.5094,4.5171,4.5151,4.5107,4.5043,4.5145,4.5179,4.5193,4.4996,4.4993,4.4992,4.499,0,0,4.5301,4.5259,4.5273,4.5266,4.5241,4.5255,4.5286,4.5287,4.5297,4.529,4.5314,4.5333,4.5291,4.5289,4.5254,4.5282,4.5373,4.5234,4.5232,4.5259,4.5455,4.5487,4.5505,4.5343,4.5346,4.5348,4.5455,0,4.5414,4.5464,4.5419,4.5478,4.5495,4.5428,4.5455,4.5442,4.5418,4.5429,4.5403,4.5416,4.5361,4.5359,4.5384,4.5357,4.5411,4.5348,4.5364,4.5366,4.5369,4.5523,4.5558,4.566,4.5469,4.5471,4.5473,0,4.5553,4.5551,4.5611,4.5581,4.5586,4.5611,4.5608,4.5619,4.5604,4.5584,4.5582,4.5538,4.5566,4.5504,4.5541,4.55,4.5503,4.5491,4.5494,4.5493,4.5425,4.5525,4.5692,4.5707,4.5493,4.5492,4.549,0,4.568,4.5693,4.573,4.5726,4.5692,4.5711,4.5698,4.5678,4.5682,4.5679,4.568,4.5681,4.5682,4.5683,4.5641,4.56,4.5683,4.5618,4.5667,4.5668,4.5687,4.5686,4.5856,4.5692,4.5692,4.5691,4.5691,0,4.5811,4.585,4.5786,4.581,4.5851,4.5798,4.5841,4.5821,4.5805,4.5822,4.5765,4.5783,4.5726,4.5738,4.5705,4.574,4.5741,4.5726,4.5716,4.573,4.5732,4.5731,4.5723,4.5695,4.5694,4.5694,4.5693,0,4.596,4.5919,4.5955,4.5919,4.5911,4.5943,4.5912,4.5932,4.5904,4.5927,4.5929,4.5885,4.5896,4.5854,4.5858,4.5836,4.5888,4.5867,4.5893,4.5886,4.5937,4.5933,4.6112,4.6132,4.5956,4.5958,4.5959,0,4.6045,4.6074,4.604,4.6048,4.6037,4.605,4.6052,4.6001,4.6006,4.5989,4.6011,4.6017,4.6018,4.6039,4.6007,4.601,4.5988,4.605,4.5988,4.6,4.5987,4.5986,4.5988,4.6063,4.6066,4.6067,4.6069,0,4.6201,4.6179,4.6184,4.6182,4.6187,4.6183,4.6175,4.6185,4.6129,4.6138,4.6147,4.6149,4.6152,4.6158,4.6154,4.614,4.6095,4.6089,4.61,4.6114,4.6128,4.612,4.5927,4.6085,4.6083,4.6082,4.6081,4.608,4.632,4.6341,4.6321,4.6328,4.6317,4.6311,4.6327,4.63,4.6307,4.6305,4.6275,4.629,4.6272,4.6262,4.6252,4.6263,4.6234,4.6251,4.6255,4.6259,4.6268,4.6126,4.6263,4.6262,4.6262,4.6261,4.6261,0,4.6471,4.6454,4.6462,4.6452,4.6458,4.6415,4.6404,4.6411,4.6426,4.6412,4.6415,4.6426,4.6431,4.64,4.6401,4.6416,4.6395,4.6418,4.6415,4.6413,4.6295,4.6284,4.6434,4.6434,4.6434,4.6434,4.6434,4.6434,4.6551,4.6584,4.656,4.6587,4.6569,4.6584,4.6581,4.6575,4.6564,4.6578,4.6582,4.6561,4.654,4.6539,4.6542,4.6532,4.6535,4.6564,4.6548,4.6438,4.6421,4.6405,4.6395,4.6566,4.6566,4.6665,4.6666,4.6667]}]]